Wind_Speed
14 14 14 14 15 15 16 16 16 15 16 17 19 19 19 19 20 21 22 23 25 26 27 28 28 29 30 31 32 32 33 34 34 35 36 36 37 37 37 38 38 38 38 38
16 17 16 16 16 17 17 17 17 18 18 20 20 20 20 20 20 22 23 24 25 26 27 28 29 29 30 31 32 32 33 33 34 34 35 35 36 36 37 37 38 38 38 39
18 19 19 18 18 19 19 19 18 18 19 20 20 21 22 22 22 23 24 24 25 26 28 29 30 30 31 32 32 33 33 33 34 35 35 35 36 36 37 38 38 38 39 40
21 21 21 20 20 20 20 20 20 20 20 21 21 22 23 24 24 25 25 26 27 28 29 30 30 31 31 32 33 33 34 35 36 36 36 36 37 38 38 38 38 39 40 40
24 24 24 23 22 22 23 22 23 23 23 24 24 25 25 26 27 27 28 29 29 29 30 31 31 32 32 32 33 34 34 35 36 36 37 37 37 38 38 38 39 40 40 41
28 28 27 25 25 25 26 26 25 25 26 26 27 27 27 28 29 29 30 30 31 31 32 33 34 34 34 34 34 35 35 36 37 37 37 37 37 38 38 38 39 40 41 41
30 31 30 29 28 28 29 29 29 28 29 29 29 30 30 31 31 32 32 33 33 34 34 35 35 36 36 37 37 37 37 37 37 37 38 38 38 38 39 39 39 40 41 41
33 33 32 31 31 31 31 32 32 33 33 33 33 33 33 34 34 35 36 36 37 37 37 38 38 38 38 38 38 38 38 38 38 38 39 39 39 39 39 40 40 40 41 41
36 34 34 34 34 34 34 35 35 36 36 36 36 36 37 37 38 39 39 40 40 41 40 40 40 41 40 40 40 40 39 38 38 39 39 39 40 40 40 41 41 41 41 41
38 36 36 36 37 37 37 37 37 37 38 38 38 39 40 40 40 41 42 42 42 43 43 42 42 42 42 42 42 41 41 40 40 40 40 40 40 40 41 41 41 41 41 41
40 38 38 38 38 39 39 39 39 39 40 41 41 41 42 42 43 43 43 43 43 43 43 43 43 43 42 42 42 42 41 41 40 40 40 41 41 41 41 41 41 41 41 41
41 40 41 40 40 40 41 41 41 41 41 42 43 44 44 44 45 45 45 45 44 44 43 43 43 42 42 42 42 41 41 41 41 41 41 41 41 41 41 41 40 40 39 39
43 43 43 43 43 43 43 43 43 43 44 44 45 45 46 46 47 47 47 46 45 44 44 43 42 42 42 41 41 41 41 41 41 41 41 41 41 40 40 40 40 39 39 38
43 44 44 44 44 44 45 45 45 45 45 45 46 46 47 47 47 46 46 45 44 44 43 43 42 42 42 41 41 41 41 41 40 40 41 41 40 40 39 39 39 39 38 38
44 44 44 44 45 45 45 45 45 45 45 46 46 46 47 46 46 46 45 44 44 43 43 42 42 41 41 41 41 41 40 40 39 39 39 39 39 39 39 39 39 39 38 38
45 45 45 45 45 45 45 45 46 46 46 47 47 46 46 46 45 44 44 44 43 42 42 42 41 41 41 40 40 40 39 39 39 38 38 38 38 38 38 38 37 37 37 37
46 46 46 45 44 44 45 46 47 47 47 47 47 46 46 45 44 43 43 42 42 41 41 41 41 40 40 40 39 39 39 38 38 37 37 36 36 36 36 35 35 35 36 36
46 46 46 45 44 44 45 45 45 45 45 45 45 45 44 44 43 42 41 41 40 40 40 40 39 39 39 39 39 38 37 37 36 36 36 35 34 34 34 34 34 34 35 35
45 45 45 45 45 45 45 44 44 43 43 43 43 43 42 42 42 41 40 39 39 39 39 39 39 39 38 38 38 37 36 35 35 34 34 33 33 33 33 33 33 33 33 33
45 45 44 44 44 44 44 43 43 43 42 42 42 42 41 41 41 40 39 39 39 39 39 38 38 38 37 37 36 35 35 34 33 32 32 32 32 32 33 32 32 32 32 32
44 44 44 44 44 44 44 44 44 43 42 42 42 41 41 40 40 39 39 39 38 38 38 37 37 37 36 36 35 34 34 33 33 32 32 32 32 32 32 32 31 31 31 30
46 45 45 45 45 45 45 45 45 44 43 43 42 42 41 40 40 39 39 39 38 38 37 36 36 36 35 35 34 33 33 33 32 32 32 32 32 32 31 31 30 29 29 29
47 47 46 46 46 46 46 46 46 46 45 44 43 43 42 42 41 41 40 39 38 37 37 37 36 36 35 34 33 33 32 32 31 31 31 31 31 31 30 29 29 29 29 29
48 48 47 47 47 47 46 46 46 45 45 44 44 44 43 43 42 41 41 40 39 38 38 37 36 34 34 33 33 32 31 30 30 30 30 30 30 29 29 28 28 28 28 28
48 48 47 47 47 46 47 46 46 46 46 45 45 44 44 44 43 41 40 39 39 38 37 36 35 34 33 32 32 31 30 29 29 29 29 28 28 27 27 27 27 27 27 27
48 48 47 47 47 47 48 48 47 47 47 46 45 45 44 43 42 41 39 38 37 37 36 35 33 32 32 31 31 30 29 29 28 28 27 26 26 26 26 26 26 26 26 26
47 46 46 46 47 47 47 47 46 45 45 45 44 43 42 41 40 39 37 36 35 34 34 33 32 32 31 30 29 29 28 27 26 26 25 25 24 25 25 25 25 25 25 25
Wind_Direction
311 308 306 303 301 297 295 292 289 288 286 284 284 282 280 279 277 274 272 271 270 269 270 271 272 272 272 273 273 274 275 276 277 277 277 277 277 278 279 280 281 281 281 282
305 303 302 302 302 300 297 294 291 288 286 286 286 283 282 280 279 276 273 273 273 272 273 274 275 275 274 275 275 276 277 277 278 279 279 279 279 279 280 281 281 281 282 282
302 300 299 301 301 299 297 297 295 291 288 286 286 284 281 280 279 278 276 275 275 275 275 277 277 277 277 276 277 278 278 279 279 280 281 280 281 281 282 282 281 281 282 284
298 297 299 301 299 297 296 296 295 293 291 289 289 287 284 282 281 280 279 279 279 279 278 279 280 281 280 279 279 279 279 280 280 281 281 281 282 282 282 282 282 283 284 284
295 296 296 298 298 296 295 294 293 292 291 290 288 286 285 284 283 282 282 282 282 282 282 282 282 282 282 282 281 281 281 281 282 282 282 282 282 283 283 283 283 284 285 286
294 293 294 295 294 293 292 293 293 292 290 289 288 286 285 285 284 283 283 283 283 283 283 283 283 283 283 283 283 283 283 283 283 283 283 283 283 284 284 285 285 285 286 286
292 292 292 293 292 292 292 293 292 291 290 289 288 288 287 286 285 284 284 283 283 283 283 283 283 284 284 283 283 283 283 284 284 284 284 283 284 284 285 285 285 285 286 287
291 292 292 292 290 290 290 291 291 291 291 289 288 287 287 286 285 285 284 284 283 284 283 283 283 283 283 283 283 282 283 284 284 284 284 283 283 283 284 285 286 286 286 287
290 292 292 291 290 289 290 290 290 290 290 289 289 288 288 287 287 287 287 286 284 284 284 283 282 282 282 282 282 282 282 283 283 284 284 283 283 284 285 286 286 286 286 287
289 291 290 289 289 289 290 290 290 290 289 289 289 289 289 289 289 289 288 287 285 283 283 282 282 282 281 281 281 281 281 282 283 283 283 283 284 284 284 285 285 285 285 286
288 288 287 288 288 289 289 290 289 289 289 289 288 288 289 290 289 289 289 288 286 285 283 282 282 282 282 281 281 281 282 282 282 283 283 283 284 284 284 285 285 285 286 286
287 286 286 287 287 287 288 288 288 288 288 288 288 288 289 290 289 289 289 288 287 286 284 282 281 281 282 281 282 282 282 282 282 282 282 282 282 283 283 284 284 286 286 287
284 284 285 286 286 287 287 287 288 288 288 288 289 289 289 289 289 289 289 288 288 286 285 283 282 282 282 282 282 282 282 282 282 281 281 281 282 282 282 283 284 285 286 287
282 283 284 286 286 287 287 287 287 288 289 289 289 289 290 290 289 289 289 288 288 287 285 284 283 282 282 282 282 282 282 282 281 280 280 280 280 281 282 283 284 285 286 287
282 283 285 286 287 287 286 287 287 288 288 289 290 290 290 290 290 289 288 288 287 286 285 284 283 282 282 281 281 282 282 281 280 280 280 279 279 280 281 282 284 285 286 287
282 284 285 286 286 286 286 287 287 288 289 289 289 290 290 290 289 289 288 287 287 286 284 283 282 282 282 281 281 281 281 281 280 280 280 280 280 281 281 283 284 285 286 287
282 284 284 285 285 286 286 287 288 288 289 289 289 289 289 289 289 288 288 288 287 286 285 284 283 282 281 281 282 281 281 281 281 280 281 281 281 281 282 284 285 287 288 288
282 283 284 284 285 285 286 286 287 288 288 289 289 289 288 288 288 287 287 287 286 286 285 284 283 282 281 281 281 281 280 280 280 280 281 281 281 282 284 285 286 287 288 289
281 282 283 284 284 284 285 285 286 286 287 288 288 288 288 287 287 287 286 286 286 285 284 283 283 282 281 281 281 279 279 278 278 279 279 280 281 282 284 285 286 287 288 289
281 282 282 283 283 283 283 283 284 285 286 286 287 287 288 288 287 286 286 286 285 285 285 284 284 283 282 281 280 279 278 278 278 278 278 279 280 282 283 284 285 285 286 287
280 281 281 281 281 281 282 282 283 284 284 285 285 286 286 287 286 286 285 284 285 285 285 285 284 284 283 282 280 278 278 277 277 277 278 279 280 281 282 283 283 284 284 286
279 279 279 280 280 280 280 281 281 282 283 283 284 284 285 286 286 286 286 285 284 284 285 284 284 283 283 282 280 278 277 276 276 277 278 278 280 281 282 282 282 282 284 286
278 278 278 278 278 279 279 279 279 280 281 282 282 283 284 285 285 285 284 284 283 284 284 284 283 283 282 281 280 278 277 277 276 276 277 278 280 280 281 280 281 282 284 286
277 277 277 278 278 279 279 279 278 279 280 281 281 282 283 283 284 283 283 282 281 281 282 282 281 281 281 280 278 278 277 277 277 277 277 278 279 280 280 279 280 282 285 287
277 277 277 278 278 279 279 279 279 279 279 279 280 281 282 283 283 282 280 279 279 279 280 280 280 280 280 279 278 277 277 277 277 277 277 277 277 278 278 278 279 282 284 287
277 277 278 278 278 278 278 279 280 279 279 279 279 281 282 282 282 280 278 277 276 277 277 277 278 278 278 278 277 277 276 275 275 275 275 274 274 276 276 277 279 281 283 286
276 276 276 277 277 278 278 279 280 279 279 279 279 280 281 281 279 278 276 275 274 274 275 275 276 277 277 277 277 275 273 272 273 273 272 272 273 275 277 278 280 282 284 286
Height
5698 5696 5695 5694 5693 5692 5690 5690 5689 5689 5687 5686 5684 5684 5683 5682 5681 5680 5679 5679 5678 5677 5676 5676 5675 5674 5674 5673 5672 5671 5670 5668 5667 5666 5665 5663 5662 5661 5660 5658 5657 5655 5653 5652
5695 5693 5691 5691 5690 5688 5687 5686 5685 5684 5683 5681 5680 5679 5678 5677 5676 5675 5673 5672 5671 5670 5669 5668 5667 5666 5665 5664 5663 5662 5661 5659 5658 5656 5655 5654 5652 5651 5649 5648 5646 5645 5643 5641
5691 5689 5688 5687 5686 5684 5682 5681 5680 5679 5679 5676 5675 5673 5672 5671 5670 5669 5667 5666 5665 5663 5662 5661 5660 5658 5657 5656 5654 5653 5652 5650 5649 5647 5645 5644 5642 5641 5639 5637 5636 5634 5632 5630
5686 5685 5683 5685 5681 5679 5677 5676 5675 5673 5672 5671 5669 5668 5666 5665 5663 5662 5661 5659 5658 5656 5654 5653 5651 5650 5648 5647 5645 5644 5642 5641 5639 5637 5635 5634 5632 5630 5628 5627 5625 5623 5621 5619
5680 5678 5678 5678 5675 5673 5671 5670 5669 5667 5666 5664 5663 5661 5659 5658 5656 5655 5654 5652 5650 5648 5647 5645 5643 5641 5640 5638 5636 5635 5633 5631 5629 5627 5625 5623 5622 5620 5618 5616 5614 5612 5610 5608
5673 5671 5671 5672 5669 5666 5665 5664 5662 5660 5659 5657 5655 5654 5653 5650 5648 5647 5645 5643 5642 5640 5638 5636 5634 5632 5631 5629 5627 5625 5623 5621 5619 5616 5615 5613 5611 5609 5607 5605 5603 5601 5599 5596
5666 5663 5663 5663 5660 5658 5658 5657 5654 5652 5651 5649 5647 5646 5644 5642 5640 5638 5636 5634 5632 5630 5629 5627 5625 5623 5621 5619 5617 5615 5612 5610 5608 5606 5604 5602 5600 5598 5596 5594 5592 5590 5588 5585
5657 5656 5657 5654 5652 5650 5649 5647 5644 5643 5641 5640 5638 5636 5634 5632 5630 5628 5626 5624 5622 5620 5618 5616 5614 5612 5610 5608 5606 5604 5602 5599 5597 5595 5593 5591 5589 5587 5585 5583 5580 5578 5576 5573
5649 5650 5647 5644 5642 5640 5639 5637 5635 5633 5631 5629 5628 5626 5624 5622 5619 5617 5615 5613 5611 5609 5607 5605 5602 5600 5598 5596 5594 5592 5590 5588 5586 5584 5582 5580 5578 5576 5573 5571 5569 5566 5564 5561
5638 5639 5636 5633 5631 5630 5628 5626 5625 5623 5621 5618 5616 5614 5612 5610 5608 5605 5603 5601 5598 5596 5594 5592 5590 5587 5585 5583 5581 5580 5578 5576 5574 5572 5570 5568 5566 5564 5561 5559 5557 5554 5552 5549
5627 5627 5624 5623 5620 5619 5617 5615 5613 5611 5609 5607 5604 5602 5600 5598 5595 5592 5590 5587 5585 5583 5581 5579 5576 5574 5572 5570 5569 5567 5566 5564 5562 5560 5558 5556 5554 5552 5549 5547 5545 5543 5540 5537
5615 5614 5612 5611 5609 5607 5605 5603 5601 5599 5597 5594 5591 5589 5587 5584 5582 5579 5576 5573 5571 5569 5567 5565 5563 5561 5559 5557 5555 5554 5552 5551 5549 5548 5546 5544 5542 5540 5537 5535 5533 5531 5528 5526
5602 5600 5598 5597 5596 5594 5592 5590 5588 5586 5584 5581 5578 5576 5573 5571 5568 5565 5562 5560 5557 5555 5553 5551 5549 5548 5546 5544 5542 5541 5539 5538 5536 5535 5533 5531 5530 5528 5526 5524 5521 5519 5517 5514
5588 5586 5585 5584 5583 5581 5579 5577 5575 5573 5570 5567 5565 5562 5560 5557 5554 5551 5549 5546 5544 5542 5539 5538 5536 5534 5533 5531 5530 5528 5526 5525 5523 5522 5520 5519 5517 5515 5514 5512 5511 5508 5506 5503
5575 5573 5572 5571 5569 5567 5565 5563 5561 5559 5556 5554 5551 5549 5546 5543 5541 5538 5535 5533 5530 5528 5526 5525 5523 5521 5519 5518 5517 5515 5514 5512 5510 5509 5508 5506 5505 5503 5502 5500 5499 5497 5495 5492
5561 5560 5558 5557 5555 5553 5551 5549 5547 5545 5543 5541 5538 5536 5533 5530 5527 5524 5522 5519 5517 5515 5513 5511 5510 5508 5506 5505 5504 5502 5501 5500 5498 5497 5495 5494 5493 5492 5490 5489 5487 5486 5484 5482
5547 5546 5544 5543 5541 5539 5537 5535 5533 5531 5529 5527 5525 5522 5519 5517 5514 5512 5509 5506 5504 5502 5500 5498 5497 5495 5494 5492 5491 5490 5489 5487 5486 5485 5484 5483 5481 5480 5479 5477 5476 5475 5473 5471
5533 5532 5530 5529 5528 5526 5524 5522 5519 5517 5515 5513 5510 5508 5506 5503 5501 5499 5497 5494 5492 5490 5488 5486 5484 5483 5481 5480 5479 5477 5476 5475 5475 5474 5473 5471 5470 5469 5468 5467 5465 5464 5462 5460
5519 5518 5516 5515 5513 5512 5510 5508 5506 5504 5502 5499 5497 5495 5493 5490 5488 5486 5484 5482 5480 5478 5477 5474 5473 5471 5469 5468 5467 5466 5465 5464 5463 5462 5461 5460 5459 5459 5458 5456 5455 5453 5451 5449
5505 5504 5502 5501 5499 5497 5496 5494 5492 5491 5488 5486 5484 5482 5480 5478 5476 5474 5472 5470 5468 5466 5465 5463 5461 5459 5458 5456 5455 5454 5453 5453 5452 5451 5451 5450 5449 5448 5447 5446 5444 5443 5441 5439
5491 5490 5488 5487 5485 5484 5482 5480 5478 5477 5475 5473 5471 5469 5467 5465 5463 5461 5459 5458 5457 5454 5452 5451 5449 5448 5447 5445 5444 5443 5443 5442 5442 5441 5440 5440 5439 5438 5437 5436 5434 5433 5431 5430
5476 5475 5474 5472 5471 5470 5468 5466 5465 5463 5461 5460 5458 5456 5454 5453 5451 5449 5447 5445 5444 5442 5441 5439 5438 5436 5435 5434 5433 5432 5432 5431 5431 5430 5430 5430 5429 5428 5427 5426 5425 5423 5422 5420
5461 5460 5459 5457 5456 5455 5454 5452 5450 5448 5447 5446 5444 5443 5441 5439 5438 5436 5435 5434 5431 5430 5429 5428 5426 5425 5424 5423 5422 5421 5421 5420 5420 5420 5420 5419 5419 5418 5417 5416 5415 5414 5413 5411
5446 5445 5444 5442 5441 5440 5439 5437 5436 5434 5433 5431 5430 5428 5426 5425 5425 5423 5421 5421 5419 5418 5418 5416 5415 5414 5413 5412 5411 5411 5410 5410 5410 5410 5410 5409 5409 5408 5408 5407 5406 5405 5404 5402
5430 5429 5428 5427 5425 5424 5423 5422 5420 5419 5418 5417 5416 5414 5413 5411 5410 5410 5409 5408 5407 5406 5406 5405 5404 5403 5402 5401 5401 5400 5400 5400 5400 5400 5400 5399 5399 5399 5398 5397 5397 5396 5395 5393
5414 5413 5412 5411 5410 5409 5407 5406 5405 5404 5403 5402 5402 5400 5399 5397 5396 5396 5395 5395 5394 5394 5394 5393 5392 5392 5391 5391 5390 5390 5390 5390 5390 5390 5390 5390 5390 5389 5389 5388 5388 5387 5386 5385
5399 5398 5397 5396 5395 5393 5391 5390 5389 5389 5388 5387 5387 5386 5385 5384 5383 5382 5382 5382 5382 5382 5382 5381 5381 5381 5380 5380 5380 5380 5380 5380 5380 5380 5381 5381 5381 5380 5380 5380 5379 5378 5377 5376